Temp
71 70 70 69 69 68 68 67 67 67 67 67 67 66 66 66 66 66 66 65 65 65 65 65 65 65 65 64 64 65 65 66 65 65 65 65 64 64 63 63 63 63 63 63 63 62 62 62 62 60 58 58 59 59 59 58 56 55 54 53 52 51 51 51 50 50 49 49 49
70 70 70 69 69 68 68 67 67 67 67 67 67 66 66 66 66 66 66 65 66 65 65 65 65 65 64 64 64 65 65 65 65 65 65 65 64 64 63 63 63 63 63 64 63 61 60 60 59 56 54 54 54 54 54 54 53 52 51 51 50 50 50 50 50 50 50 50 50
71 70 70 70 69 69 68 67 67 66 66 66 66 66 66 66 66 66 66 66 65 65 65 65 65 65 64 64 64 65 65 65 65 65 65 65 64 64 64 65 64 64 64 63 62 61 59 58 56 55 54 53 52 52 52 52 52 51 51 50 50 51 51 51 51 51 50 50 50
71 70 70 70 69 68 68 68 67 66 66 67 66 66 66 66 66 66 66 65 65 65 65 65 66 66 65 65 64 64 64 64 64 64 64 65 65 65 66 66 64 63 63 63 62 61 60 58 56 55 54 53 52 52 52 53 53 52 52 52 52 52 52 51 51 51 50 50 50
71 71 71 70 69 69 69 68 67 67 67 67 67 67 67 67 66 65 65 66 66 65 65 65 67 67 66 65 64 63 63 63 63 64 64 64 64 64 64 62 61 60 61 62 62 61 60 58 56 55 55 54 54 54 54 54 54 54 53 53 52 52 51 51 50 50 50 49 49
71 71 71 70 70 69 69 69 68 67 68 68 67 67 67 67 66 66 65 66 65 64 64 65 65 65 64 63 63 62 62 61 62 63 64 64 63 62 61 61 62 62 61 61 61 61 60 58 56 55 55 55 55 55 55 55 54 53 52 52 51 50 50 50 49 49 49 49 48
71 71 71 70 70 70 69 68 68 68 68 68 67 66 66 66 65 65 65 65 65 65 65 65 64 64 63 62 62 61 60 60 60 61 61 61 61 61 61 61 61 60 60 60 59 59 58 57 55 55 54 54 54 54 54 53 53 52 51 50 49 49 48 48 48 47 48 48 48
72 71 71 71 71 70 69 68 69 68 68 68 67 66 66 65 65 65 65 65 65 65 65 65 64 63 63 63 62 61 60 59 59 59 59 59 59 60 60 61 61 60 60 60 58 57 56 55 54 54 54 53 53 53 53 52 52 52 51 50 49 48 48 48 47 47 47 47 47
72 71 71 71 71 70 69 69 68 68 68 67 67 66 66 66 65 65 65 64 64 64 64 64 64 63 63 62 62 61 60 60 59 59 59 59 59 59 60 60 60 60 59 59 58 57 56 55 54 54 53 52 52 52 52 52 52 51 51 50 49 48 48 47 47 46 46 47 47
71 71 71 70 69 69 69 68 68 67 67 67 66 66 66 65 65 65 65 65 64 64 63 63 64 63 63 63 62 62 61 60 60 59 59 59 59 59 59 60 59 58 58 58 57 56 55 54 54 53 52 51 52 52 52 52 51 51 50 49 49 48 47 46 46 46 45 46 46
71 71 71 70 69 69 68 67 67 67 67 66 66 66 66 65 65 65 66 65 64 63 63 63 63 63 63 63 63 63 62 62 61 60 59 58 58 59 60 60 59 57 56 56 56 55 55 54 53 53 52 52 52 52 52 51 50 50 49 49 48 47 46 46 45 45 45 45 45
70 70 70 70 69 68 68 67 67 67 66 66 66 66 66 66 65 66 66 65 64 63 63 64 64 64 63 64 64 64 63 63 61 60 59 58 59 60 60 60 59 57 56 55 54 54 54 53 53 53 52 52 52 51 51 50 50 50 49 49 48 47 46 45 45 44 44 44 44
70 70 70 69 68 68 67 67 67 67 67 66 67 67 67 66 66 66 66 64 64 64 64 64 64 64 64 64 64 64 63 62 61 61 60 59 60 60 60 60 59 58 57 56 55 55 55 54 53 53 52 51 51 51 50 50 50 49 49 48 48 47 46 46 45 44 44 44 44
70 70 69 69 68 67 67 67 67 67 67 66 67 67 67 66 66 66 65 64 64 64 65 65 65 65 65 65 65 64 62 61 61 61 61 60 60 60 59 59 58 58 57 57 56 55 55 54 53 52 52 51 51 50 50 50 49 49 48 47 47 47 47 47 46 45 44 43 43
69 69 68 68 68 67 67 66 67 67 66 66 67 67 67 67 66 65 65 64 64 65 66 66 66 66 65 64 63 62 62 61 61 61 60 60 60 59 59 58 58 57 57 56 56 55 55 54 53 53 52 51 50 50 50 50 49 48 47 47 47 47 47 47 46 45 43 42 42
69 68 68 68 67 67 67 66 67 67 66 66 67 67 67 66 65 65 64 64 65 66 67 66 65 65 64 62 62 62 62 62 61 60 60 60 60 59 59 58 58 57 56 56 56 55 55 54 54 53 52 51 50 50 50 49 47 47 47 47 47 48 48 47 46 45 44 43 42
68 68 68 67 67 67 66 66 67 67 66 66 67 67 66 65 65 64 64 64 65 66 65 64 63 62 62 61 61 61 61 61 61 60 60 60 59 59 59 59 58 57 56 56 55 55 54 54 53 53 51 50 50 49 49 48 47 47 47 48 48 48 47 47 46 45 44 43 43
68 67 67 67 67 66 66 66 66 66 66 66 66 66 65 65 64 64 63 63 64 64 63 62 61 61 60 60 60 60 60 60 60 60 59 59 59 59 59 59 58 57 56 56 56 55 54 53 53 52 51 50 50 50 49 48 48 47 47 47 47 47 46 46 45 44 44 43 43
67 67 67 67 66 66 66 66 66 66 66 66 66 65 65 64 64 63 63 63 63 62 61 60 60 59 59 59 60 60 60 60 60 60 59 59 59 59 59 58 57 56 56 55 55 55 54 53 53 52 51 50 50 50 49 48 47 47 47 46 46 46 45 45 45 44 44 43 43
67 67 67 67 67 66 66 66 66 66 66 66 65 65 64 63 63 62 62 62 62 61 61 60 59 59 59 60 60 60 60 61 60 60 60 59 59 58 57 56 55 55 54 54 55 54 54 53 52 51 50 49 49 49 49 48 47 47 46 46 45 45 45 45 45 44 44 43 43
67 67 67 67 67 66 66 66 66 66 66 65 65 64 63 62 62 61 61 61 61 61 60 59 59 59 59 60 60 60 61 61 61 60 60 59 58 57 56 55 54 54 53 53 53 53 53 53 52 51 49 47 48 47 47 48 48 47 46 45 45 45 45 45 45 44 44 43 43
67 67 67 67 66 66 66 66 66 66 65 65 64 63 62 62 61 61 61 61 61 61 60 59 59 59 59 60 60 61 61 61 60 60 59 58 57 56 55 54 53 52 52 51 51 51 52 53 52 50 48 47 46 46 47 48 48 47 46 45 45 45 45 45 45 44 44 43 43
67 67 67 66 66 66 66 66 66 65 65 64 63 62 61 61 61 61 61 61 61 61 61 61 60 60 60 60 60 60 60 59 59 59 58 58 56 55 54 54 53 52 51 50 48 49 49 49 50 48 46 45 43 46 48 47 47 46 46 46 44 45 45 45 45 45 44 44 44
66 66 67 67 66 66 65 65 65 65 64 63 62 61 61 61 61 61 60 60 61 62 62 63 62 61 60 59 59 59 58 58 58 57 57 56 55 54 54 53 52 51 50 49 47 47 47 45 45 44 43 42 45 47 47 45 44 45 46 45 45 45 45 45 45 45 45 44 44
66 66 66 66 66 65 65 65 64 64 63 62 61 61 60 60 60 60 60 60 61 61 61 60 59 58 58 58 58 58 58 58 57 56 56 55 54 54 53 53 52 51 51 50 51 51 50 48 46 43 42 43 46 46 45 41 41 44 46 46 46 45 45 45 45 45 45 45 45
65 65 65 65 65 65 65 64 63 63 62 62 61 60 60 60 59 59 59 59 59 59 58 56 56 56 57 58 58 58 58 58 57 56 55 55 54 54 53 52 51 50 49 51 52 53 52 51 50 47 45 44 44 43 40 38 41 43 44 47 46 46 45 45 45 45 45 46 45
65 65 65 65 65 64 64 63 63 62 61 61 60 59 59 59 59 59 58 58 57 56 56 56 55 56 57 58 58 57 57 56 56 56 55 54 54 52 50 47 47 47 48 51 53 53 52 52 52 50 48 44 43 40 38 39 40 41 43 46 45 45 45 45 45 45 45 46 45
65 65 64 64 64 63 62 62 61 61 60 60 59 59 59 59 58 58 57 56 55 55 56 56 56 57 57 57 57 56 55 54 55 55 54 53 51 48 46 45 45 46 49 52 53 53 53 53 52 51 50 47 45 42 40 40 41 43 44 44 44 44 43 43 43 44 44 45 45
64 64 63 63 62 61 61 60 60 60 59 59 59 59 59 58 57 56 56 55 55 55 55 56 56 56 56 55 55 55 54 54 54 54 52 50 47 45 44 43 43 46 49 53 52 52 52 52 52 51 50 49 46 43 42 42 43 44 45 44 44 43 42 42 42 42 43 43 42
63 63 62 61 60 60 60 59 59 59 59 59 59 59 58 57 56 56 55 55 55 55 55 55 55 54 54 54 54 54 53 53 54 52 50 48 46 45 44 44 43 45 48 52 52 52 52 52 52 51 51 50 47 44 43 42 41 41 42 43 43 43 42 42 41 41 41 41 41
61 61 60 59 59 59 59 59 59 59 59 59 58 57 57 56 56 55 55 55 54 54 54 53 53 52 52 52 52 52 52 52 51 50 49 47 46 46 45 45 44 45 48 52 51 51 51 51 51 51 51 50 47 44 41 41 41 40 40 40 41 42 42 42 42 41 41 41 40
60 59 59 58 58 58 59 59 59 58 58 57 57 56 55 55 55 54 54 54 54 54 53 52 51 51 51 51 50 50 49 49 48 48 47 47 47 46 45 44 43 45 48 52 51 51 51 51 51 51 51 51 47 44 41 41 40 40 39 40 41 42 43 44 42 41 41 40 39
58 58 57 57 57 58 58 58 57 57 56 56 55 55 54 54 54 54 54 54 54 53 52 52 51 51 50 49 49 48 47 47 47 47 47 47 45 44 43 43 43 46 49 51 51 51 51 51 51 51 51 51 47 44 41 41 40 40 39 39 40 42 43 42 41 40 40 39 38
57 56 56 56 56 56 57 56 56 56 55 54 54 53 53 53 53 53 53 53 53 53 52 52 51 50 49 49 48 47 47 47 46 46 45 44 43 43 42 42 44 48 51 51 51 51 51 51 51 51 51 50 46 43 41 40 40 39 38 38 39 40 41 42 39 38 37 37 37
56 55 55 55 55 55 55 55 55 54 54 53 53 53 53 53 53 53 53 53 53 52 52 52 51 50 49 48 47 47 47 47 46 45 44 43 43 43 43 43 46 49 51 51 51 51 51 51 51 51 50 48 44 41 39 39 38 38 37 37 38 39 40 40 39 38 37 37 37
55 54 54 54 55 55 55 54 54 53 53 52 52 52 53 53 53 53 53 52 52 51 51 50 50 49 48 47 47 47 47 47 46 46 45 45 44 43 43 45 46 48 50 51 51 51 51 51 51 50 49 45 42 40 38 38 37 37 37 37 37 37 38 38 37 37 36 36 37
54 54 54 54 54 54 54 54 53 53 52 52 52 52 53 53 53 53 53 52 51 50 49 49 49 48 47 46 47 47 48 48 48 47 46 46 45 44 44 43 43 45 48 51 51 51 51 51 51 50 47 42 40 38 38 37 37 37 37 36 37 37 37 37 37 36 36 36 38
54 54 54 54 54 54 54 53 53 52 52 52 52 52 53 53 53 53 53 52 50 49 48 48 47 47 46 46 47 48 48 49 49 48 47 47 46 45 43 41 41 43 46 50 50 51 51 51 51 49 46 41 38 38 37 37 36 36 36 36 36 36 36 36 36 36 36 38 42
54 54 54 54 54 53 53 53 52 52 52 52 52 52 52 52 53 53 53 52 50 48 47 47 46 46 46 47 47 48 48 48 49 48 47 46 45 44 43 40 40 42 45 49 50 50 51 51 51 50 47 42 39 38 37 36 36 36 36 36 36 36 36 36 36 36 36 38 45
54 54 54 54 54 53 53 53 52 52 52 52 52 52 52 52 52 52 51 51 49 48 47 46 46 46 46 47 47 46 46 46 47 47 46 45 45 45 44 41 41 42 45 48 49 50 50 51 51 50 47 41 39 38 37 36 36 36 36 36 36 36 36 36 36 36 36 36 41
55 55 54 54 54 53 53 52 52 52 52 52 51 52 52 52 51 50 50 49 48 47 47 46 45 45 46 47 46 45 45 44 44 44 44 44 44 45 44 42 41 42 43 46 48 50 50 51 51 50 48 42 39 37 37 36 36 36 36 36 36 36 36 36 36 36 36 35 36
MSLP
1007.52 1007.80 1008.04 1008.28 1008.52 1008.80 1009.04 1009.28 1009.48 1009.68 1009.84 1010.08 1010.28 1010.52 1010.68 1010.84 1011.04 1011.20 1011.36 1011.52 1011.68 1011.84 1011.96 1012.12 1012.24 1012.40 1012.52 1012.64 1012.80 1012.92 1013.08 1013.20 1013.36 1013.48 1013.64 1013.80 1013.96 1014.08 1014.24 1014.40 1014.52 1014.72 1014.96 1015.12 1015.24 1015.40 1015.56 1015.68 1015.80 1016.00 1016.20 1016.28 1016.44 1016.56 1016.68 1016.80 1016.96 1017.16 1017.36 1017.48 1017.64 1017.80 1017.96 1018.12 1018.28 1018.44 1018.56 1018.68 1018.72
1007.40 1007.64 1007.88 1008.12 1008.40 1008.68 1008.96 1009.16 1009.40 1009.52 1009.72 1009.92 1010.12 1010.32 1010.52 1010.68 1010.88 1011.08 1011.24 1011.40 1011.52 1011.68 1011.84 1011.96 1012.12 1012.28 1012.40 1012.52 1012.68 1012.80 1012.96 1013.12 1013.24 1013.40 1013.52 1013.68 1013.84 1013.96 1014.16 1014.36 1014.52 1014.68 1014.88 1015.00 1015.20 1015.40 1015.56 1015.68 1015.88 1016.12 1016.28 1016.40 1016.52 1016.68 1016.80 1016.84 1017.00 1017.24 1017.40 1017.52 1017.68 1017.80 1017.92 1018.12 1018.24 1018.40 1018.48 1018.64 1018.68
1007.24 1007.52 1007.76 1008.04 1008.28 1008.56 1008.84 1009.08 1009.28 1009.48 1009.68 1009.84 1010.00 1010.20 1010.40 1010.56 1010.76 1010.96 1011.12 1011.24 1011.40 1011.52 1011.72 1011.88 1012.00 1012.16 1012.32 1012.44 1012.56 1012.72 1012.88 1013.04 1013.16 1013.32 1013.48 1013.64 1013.76 1013.92 1014.12 1014.24 1014.40 1014.60 1014.80 1014.96 1015.16 1015.36 1015.52 1015.68 1015.96 1016.16 1016.32 1016.48 1016.60 1016.76 1016.92 1017.00 1017.12 1017.32 1017.52 1017.64 1017.72 1017.84 1017.96 1018.12 1018.24 1018.36 1018.48 1018.64 1018.80
1007.12 1007.40 1007.68 1007.92 1008.16 1008.40 1008.64 1008.84 1009.12 1009.36 1009.52 1009.72 1009.92 1010.12 1010.28 1010.48 1010.64 1010.80 1010.96 1011.16 1011.28 1011.44 1011.56 1011.72 1011.84 1012.00 1012.20 1012.36 1012.52 1012.64 1012.76 1012.96 1013.08 1013.24 1013.40 1013.56 1013.72 1013.88 1014.00 1014.20 1014.40 1014.56 1014.76 1014.96 1015.12 1015.36 1015.56 1015.76 1016.00 1016.20 1016.36 1016.52 1016.68 1016.84 1017.00 1017.12 1017.24 1017.40 1017.56 1017.68 1017.84 1017.92 1018.04 1018.16 1018.32 1018.44 1018.60 1018.76 1018.88
1007.00 1007.24 1007.48 1007.72 1007.96 1008.24 1008.44 1008.68 1008.96 1009.24 1009.44 1009.64 1009.84 1010.08 1010.24 1010.40 1010.52 1010.68 1010.88 1011.08 1011.20 1011.28 1011.40 1011.56 1011.68 1011.88 1012.04 1012.24 1012.40 1012.56 1012.72 1012.88 1013.04 1013.20 1013.36 1013.52 1013.64 1013.80 1013.96 1014.20 1014.40 1014.60 1014.76 1014.96 1015.16 1015.40 1015.60 1015.84 1016.04 1016.24 1016.40 1016.52 1016.68 1016.84 1016.96 1017.12 1017.28 1017.44 1017.60 1017.76 1017.84 1017.96 1018.12 1018.28 1018.44 1018.56 1018.68 1018.80 1018.88
1006.84 1007.12 1007.32 1007.60 1007.84 1008.08 1008.32 1008.60 1008.84 1009.12 1009.32 1009.52 1009.80 1010.00 1010.16 1010.32 1010.44 1010.60 1010.80 1010.96 1011.08 1011.20 1011.32 1011.48 1011.60 1011.76 1011.96 1012.16 1012.36 1012.52 1012.68 1012.84 1012.96 1013.12 1013.28 1013.48 1013.64 1013.84 1014.04 1014.24 1014.40 1014.60 1014.80 1015.00 1015.20 1015.40 1015.60 1015.88 1016.12 1016.24 1016.40 1016.56 1016.72 1016.84 1016.96 1017.12 1017.32 1017.52 1017.68 1017.84 1017.96 1018.12 1018.24 1018.40 1018.52 1018.60 1018.68 1018.80 1018.88
1006.68 1006.96 1007.24 1007.48 1007.72 1007.96 1008.24 1008.52 1008.72 1008.96 1009.20 1009.44 1009.68 1009.92 1010.08 1010.20 1010.40 1010.52 1010.68 1010.80 1010.96 1011.12 1011.24 1011.40 1011.52 1011.72 1011.96 1012.16 1012.36 1012.52 1012.68 1012.88 1012.96 1013.12 1013.32 1013.52 1013.68 1013.92 1014.12 1014.32 1014.48 1014.68 1014.84 1015.04 1015.24 1015.44 1015.68 1015.88 1016.12 1016.32 1016.52 1016.68 1016.80 1016.96 1017.08 1017.24 1017.40 1017.60 1017.80 1018.00 1018.12 1018.24 1018.32 1018.44 1018.52 1018.60 1018.68 1018.80 1018.84
1006.56 1006.80 1007.12 1007.32 1007.56 1007.84 1008.12 1008.40 1008.68 1008.92 1009.16 1009.40 1009.60 1009.80 1009.96 1010.12 1010.28 1010.40 1010.56 1010.72 1010.92 1011.04 1011.20 1011.32 1011.52 1011.68 1011.92 1012.16 1012.36 1012.52 1012.72 1012.92 1013.04 1013.20 1013.40 1013.60 1013.84 1014.00 1014.20 1014.40 1014.56 1014.76 1014.92 1015.12 1015.28 1015.52 1015.76 1015.96 1016.20 1016.40 1016.60 1016.76 1016.96 1017.12 1017.20 1017.36 1017.52 1017.68 1017.84 1018.08 1018.20 1018.32 1018.40 1018.52 1018.56 1018.64 1018.68 1018.76 1018.80
1006.52 1006.76 1006.96 1007.24 1007.52 1007.76 1008.04 1008.28 1008.52 1008.80 1009.08 1009.32 1009.52 1009.68 1009.88 1010.04 1010.20 1010.36 1010.52 1010.68 1010.80 1010.96 1011.12 1011.32 1011.52 1011.72 1011.96 1012.16 1012.36 1012.56 1012.76 1012.96 1013.12 1013.28 1013.48 1013.64 1013.84 1014.08 1014.24 1014.44 1014.64 1014.80 1015.00 1015.16 1015.40 1015.60 1015.84 1016.12 1016.28 1016.48 1016.68 1016.88 1017.00 1017.16 1017.28 1017.40 1017.56 1017.72 1017.92 1018.08 1018.24 1018.40 1018.48 1018.52 1018.64 1018.68 1018.72 1018.80 1018.80
1006.40 1006.68 1006.92 1007.20 1007.44 1007.68 1007.96 1008.24 1008.48 1008.72 1008.96 1009.24 1009.44 1009.60 1009.80 1009.96 1010.12 1010.28 1010.44 1010.56 1010.72 1010.92 1011.12 1011.36 1011.52 1011.76 1011.96 1012.20 1012.40 1012.60 1012.80 1012.96 1013.16 1013.40 1013.56 1013.72 1013.92 1014.12 1014.32 1014.52 1014.72 1014.96 1015.12 1015.24 1015.48 1015.68 1015.88 1016.12 1016.36 1016.56 1016.76 1016.92 1017.04 1017.20 1017.32 1017.48 1017.64 1017.80 1017.96 1018.12 1018.24 1018.40 1018.52 1018.60 1018.68 1018.80 1018.80 1018.84 1018.88
1006.28 1006.52 1006.80 1007.12 1007.36 1007.60 1007.88 1008.20 1008.48 1008.68 1008.96 1009.20 1009.40 1009.56 1009.72 1009.88 1010.08 1010.20 1010.36 1010.52 1010.72 1010.96 1011.16 1011.36 1011.52 1011.80 1012.00 1012.24 1012.44 1012.64 1012.80 1013.04 1013.24 1013.44 1013.64 1013.84 1014.00 1014.16 1014.36 1014.56 1014.76 1014.96 1015.20 1015.40 1015.52 1015.72 1015.92 1016.16 1016.40 1016.60 1016.80 1016.96 1017.08 1017.20 1017.40 1017.52 1017.68 1017.84 1017.96 1018.12 1018.24 1018.40 1018.52 1018.68 1018.76 1018.80 1018.84 1018.92 1018.96
1006.20 1006.44 1006.72 1006.96 1007.28 1007.56 1007.84 1008.16 1008.44 1008.68 1008.92 1009.12 1009.32 1009.52 1009.68 1009.84 1009.96 1010.12 1010.28 1010.52 1010.76 1010.96 1011.16 1011.36 1011.52 1011.76 1012.00 1012.20 1012.40 1012.64 1012.80 1013.08 1013.28 1013.48 1013.68 1013.88 1014.08 1014.24 1014.44 1014.64 1014.84 1015.12 1015.32 1015.48 1015.64 1015.80 1015.96 1016.20 1016.40 1016.56 1016.80 1016.96 1017.12 1017.24 1017.44 1017.60 1017.72 1017.88 1018.00 1018.12 1018.24 1018.40 1018.52 1018.68 1018.76 1018.80 1018.88 1018.96 1018.96
1006.12 1006.40 1006.68 1006.96 1007.24 1007.56 1007.84 1008.16 1008.40 1008.64 1008.88 1009.08 1009.24 1009.44 1009.64 1009.80 1009.92 1010.08 1010.28 1010.56 1010.80 1011.00 1011.16 1011.36 1011.52 1011.76 1011.96 1012.16 1012.40 1012.64 1012.84 1013.12 1013.32 1013.52 1013.76 1013.96 1014.16 1014.40 1014.56 1014.76 1014.96 1015.20 1015.40 1015.56 1015.68 1015.84 1016.00 1016.20 1016.40 1016.52 1016.76 1016.96 1017.12 1017.28 1017.44 1017.60 1017.76 1017.92 1018.04 1018.16 1018.24 1018.40 1018.52 1018.60 1018.68 1018.80 1018.88 1018.96 1018.96
1006.08 1006.40 1006.68 1006.96 1007.24 1007.56 1007.84 1008.12 1008.40 1008.60 1008.80 1009.00 1009.20 1009.40 1009.52 1009.72 1009.88 1010.08 1010.28 1010.56 1010.80 1010.96 1011.16 1011.40 1011.52 1011.72 1011.92 1012.12 1012.36 1012.60 1012.88 1013.12 1013.36 1013.56 1013.84 1014.04 1014.24 1014.48 1014.68 1014.92 1015.08 1015.28 1015.48 1015.60 1015.72 1015.88 1016.04 1016.24 1016.40 1016.56 1016.76 1016.96 1017.16 1017.32 1017.48 1017.64 1017.76 1017.88 1018.00 1018.12 1018.24 1018.32 1018.44 1018.52 1018.64 1018.72 1018.84 1018.92 1018.96
1006.08 1006.36 1006.64 1006.96 1007.24 1007.56 1007.84 1008.12 1008.36 1008.56 1008.80 1008.96 1009.12 1009.28 1009.48 1009.68 1009.84 1010.08 1010.28 1010.52 1010.72 1010.92 1011.12 1011.36 1011.52 1011.72 1011.92 1012.12 1012.40 1012.68 1012.92 1013.12 1013.36 1013.56 1013.84 1014.08 1014.32 1014.52 1014.72 1014.96 1015.12 1015.32 1015.48 1015.64 1015.76 1015.92 1016.08 1016.24 1016.40 1016.60 1016.80 1017.00 1017.16 1017.32 1017.48 1017.64 1017.76 1017.84 1017.96 1018.12 1018.20 1018.28 1018.36 1018.44 1018.56 1018.68 1018.80 1018.88 1018.96
1006.08 1006.36 1006.68 1006.96 1007.24 1007.52 1007.84 1008.08 1008.28 1008.52 1008.72 1008.92 1009.08 1009.24 1009.40 1009.64 1009.88 1010.12 1010.28 1010.52 1010.68 1010.88 1011.12 1011.32 1011.52 1011.80 1012.04 1012.24 1012.48 1012.72 1012.92 1013.12 1013.36 1013.60 1013.84 1014.12 1014.32 1014.52 1014.72 1014.92 1015.12 1015.28 1015.48 1015.68 1015.84 1015.96 1016.12 1016.24 1016.44 1016.64 1016.80 1016.96 1017.20 1017.36 1017.48 1017.64 1017.80 1017.88 1017.96 1018.12 1018.16 1018.24 1018.32 1018.40 1018.52 1018.64 1018.76 1018.84 1018.96
1006.08 1006.36 1006.68 1006.96 1007.24 1007.52 1007.80 1008.04 1008.24 1008.44 1008.68 1008.84 1009.00 1009.20 1009.40 1009.68 1009.92 1010.12 1010.28 1010.48 1010.68 1010.92 1011.12 1011.40 1011.68 1011.92 1012.16 1012.40 1012.60 1012.80 1012.96 1013.16 1013.40 1013.64 1013.88 1014.12 1014.32 1014.52 1014.68 1014.88 1015.08 1015.24 1015.48 1015.68 1015.84 1016.04 1016.20 1016.32 1016.52 1016.68 1016.84 1017.00 1017.20 1017.36 1017.52 1017.68 1017.80 1017.92 1018.00 1018.08 1018.12 1018.20 1018.24 1018.36 1018.44 1018.56 1018.68 1018.80 1018.92
1006.12 1006.40 1006.68 1006.96 1007.24 1007.52 1007.76 1007.96 1008.20 1008.40 1008.60 1008.80 1009.00 1009.24 1009.44 1009.68 1009.92 1010.12 1010.32 1010.52 1010.76 1011.00 1011.28 1011.56 1011.84 1012.04 1012.24 1012.52 1012.68 1012.84 1013.04 1013.24 1013.52 1013.72 1013.96 1014.20 1014.40 1014.52 1014.72 1014.88 1015.08 1015.24 1015.48 1015.68 1015.84 1016.04 1016.24 1016.40 1016.60 1016.76 1016.96 1017.12 1017.24 1017.40 1017.52 1017.68 1017.80 1017.88 1017.96 1018.04 1018.12 1018.16 1018.24 1018.32 1018.40 1018.52 1018.68 1018.76 1018.84
1006.12 1006.40 1006.68 1006.96 1007.24 1007.52 1007.72 1007.96 1008.16 1008.36 1008.56 1008.80 1009.00 1009.24 1009.52 1009.72 1009.92 1010.12 1010.40 1010.60 1010.88 1011.16 1011.44 1011.72 1011.96 1012.20 1012.40 1012.60 1012.80 1012.96 1013.12 1013.32 1013.60 1013.84 1014.08 1014.24 1014.44 1014.64 1014.80 1015.00 1015.16 1015.32 1015.52 1015.68 1015.88 1016.12 1016.28 1016.48 1016.64 1016.80 1016.96 1017.12 1017.28 1017.44 1017.56 1017.68 1017.84 1017.92 1017.96 1018.08 1018.16 1018.24 1018.28 1018.40 1018.48 1018.60 1018.68 1018.80 1018.88
1006.08 1006.40 1006.64 1006.92 1007.20 1007.48 1007.68 1007.92 1008.12 1008.28 1008.52 1008.76 1009.04 1009.28 1009.52 1009.76 1009.96 1010.20 1010.44 1010.72 1011.00 1011.28 1011.52 1011.80 1012.04 1012.28 1012.48 1012.64 1012.80 1012.96 1013.12 1013.40 1013.68 1013.96 1014.20 1014.40 1014.56 1014.80 1014.96 1015.12 1015.28 1015.40 1015.56 1015.76 1015.96 1016.16 1016.40 1016.52 1016.68 1016.84 1017.00 1017.16 1017.32 1017.52 1017.64 1017.76 1017.88 1018.00 1018.12 1018.20 1018.24 1018.32 1018.40 1018.48 1018.56 1018.68 1018.76 1018.84 1018.96
1006.08 1006.40 1006.68 1006.92 1007.20 1007.44 1007.68 1007.88 1008.08 1008.24 1008.52 1008.80 1009.12 1009.40 1009.60 1009.84 1010.04 1010.28 1010.52 1010.80 1011.12 1011.40 1011.68 1011.84 1012.12 1012.32 1012.52 1012.68 1012.80 1012.96 1013.20 1013.44 1013.76 1014.04 1014.28 1014.52 1014.72 1014.96 1015.12 1015.24 1015.40 1015.52 1015.68 1015.84 1016.04 1016.24 1016.40 1016.56 1016.76 1016.92 1017.08 1017.24 1017.40 1017.52 1017.72 1017.84 1017.96 1018.08 1018.20 1018.24 1018.36 1018.44 1018.52 1018.60 1018.68 1018.76 1018.84 1018.96 1019.00
1006.12 1006.36 1006.68 1006.96 1007.16 1007.40 1007.64 1007.84 1008.04 1008.28 1008.56 1008.88 1009.20 1009.44 1009.68 1009.92 1010.16 1010.40 1010.64 1010.92 1011.20 1011.48 1011.80 1012.00 1012.20 1012.36 1012.52 1012.64 1012.80 1013.00 1013.24 1013.56 1013.88 1014.16 1014.40 1014.60 1014.88 1015.08 1015.24 1015.36 1015.52 1015.68 1015.84 1016.00 1016.16 1016.28 1016.44 1016.56 1016.76 1016.92 1017.12 1017.28 1017.48 1017.64 1017.72 1017.84 1017.96 1018.08 1018.20 1018.32 1018.40 1018.52 1018.56 1018.68 1018.76 1018.84 1018.92 1018.96 1019.04
1006.12 1006.40 1006.68 1006.96 1007.16 1007.40 1007.64 1007.84 1008.08 1008.32 1008.64 1008.96 1009.28 1009.56 1009.84 1010.04 1010.28 1010.52 1010.76 1011.00 1011.24 1011.52 1011.80 1012.04 1012.24 1012.40 1012.52 1012.68 1012.92 1013.12 1013.40 1013.76 1014.04 1014.28 1014.52 1014.76 1014.96 1015.20 1015.36 1015.52 1015.68 1015.84 1016.00 1016.16 1016.28 1016.40 1016.52 1016.68 1016.80 1016.96 1017.16 1017.40 1017.52 1017.60 1017.68 1017.80 1017.92 1018.08 1018.24 1018.36 1018.44 1018.52 1018.60 1018.68 1018.80 1018.84 1018.92 1018.96 1019.04
1006.12 1006.40 1006.68 1006.92 1007.20 1007.40 1007.64 1007.84 1008.12 1008.40 1008.76 1009.12 1009.40 1009.68 1009.92 1010.16 1010.40 1010.68 1010.88 1011.12 1011.32 1011.52 1011.80 1012.04 1012.24 1012.44 1012.68 1012.88 1013.12 1013.32 1013.60 1013.92 1014.16 1014.40 1014.64 1014.88 1015.12 1015.32 1015.52 1015.68 1015.80 1015.96 1016.12 1016.24 1016.44 1016.56 1016.68 1016.80 1016.96 1017.12 1017.28 1017.40 1017.52 1017.60 1017.68 1017.84 1017.96 1018.12 1018.24 1018.36 1018.44 1018.52 1018.64 1018.68 1018.76 1018.84 1018.92 1018.96 1019.00
1006.16 1006.40 1006.68 1006.96 1007.20 1007.40 1007.68 1007.92 1008.20 1008.52 1008.88 1009.20 1009.48 1009.76 1010.00 1010.28 1010.52 1010.80 1011.00 1011.20 1011.40 1011.60 1011.88 1012.16 1012.40 1012.68 1012.88 1013.12 1013.32 1013.52 1013.80 1014.04 1014.24 1014.52 1014.76 1015.00 1015.20 1015.40 1015.56 1015.76 1015.92 1016.08 1016.20 1016.32 1016.44 1016.60 1016.72 1016.88 1017.04 1017.20 1017.36 1017.44 1017.52 1017.68 1017.80 1017.96 1018.04 1018.12 1018.20 1018.32 1018.44 1018.56 1018.64 1018.72 1018.76 1018.80 1018.84 1018.88 1018.96
1006.20 1006.48 1006.72 1007.00 1007.24 1007.44 1007.68 1007.96 1008.28 1008.60 1008.96 1009.32 1009.56 1009.84 1010.12 1010.40 1010.68 1010.92 1011.12 1011.32 1011.56 1011.84 1012.12 1012.40 1012.64 1012.84 1013.04 1013.24 1013.48 1013.72 1013.96 1014.20 1014.40 1014.60 1014.80 1015.04 1015.24 1015.44 1015.64 1015.84 1016.00 1016.20 1016.32 1016.40 1016.52 1016.68 1016.80 1016.96 1017.12 1017.24 1017.36 1017.48 1017.64 1017.84 1017.96 1018.08 1018.12 1018.20 1018.24 1018.32 1018.48 1018.56 1018.68 1018.72 1018.76 1018.80 1018.80 1018.84 1018.88
1006.24 1006.52 1006.80 1007.00 1007.24 1007.52 1007.80 1008.08 1008.40 1008.76 1009.12 1009.40 1009.68 1009.96 1010.28 1010.52 1010.80 1011.04 1011.24 1011.52 1011.84 1012.12 1012.36 1012.56 1012.80 1012.96 1013.16 1013.40 1013.64 1013.84 1014.12 1014.32 1014.52 1014.72 1014.88 1015.08 1015.32 1015.52 1015.80 1016.00 1016.16 1016.32 1016.48 1016.56 1016.68 1016.80 1016.96 1017.04 1017.12 1017.24 1017.40 1017.64 1017.80 1017.96 1018.12 1018.16 1018.24 1018.28 1018.36 1018.40 1018.52 1018.60 1018.68 1018.76 1018.80 1018.80 1018.84 1018.84 1018.92
1006.32 1006.56 1006.80 1007.08 1007.36 1007.64 1007.96 1008.24 1008.60 1008.92 1009.24 1009.52 1009.80 1010.12 1010.44 1010.68 1010.96 1011.20 1011.44 1011.68 1011.96 1012.24 1012.48 1012.72 1012.92 1013.12 1013.36 1013.52 1013.80 1014.00 1014.24 1014.40 1014.60 1014.80 1015.04 1015.24 1015.52 1015.72 1015.96 1016.12 1016.32 1016.44 1016.56 1016.68 1016.80 1016.92 1017.04 1017.12 1017.24 1017.36 1017.52 1017.68 1017.84 1018.00 1018.12 1018.24 1018.32 1018.40 1018.44 1018.52 1018.64 1018.68 1018.76 1018.80 1018.84 1018.88 1018.92 1018.96 1018.96
1006.32 1006.56 1006.84 1007.16 1007.48 1007.84 1008.12 1008.48 1008.80 1009.12 1009.36 1009.64 1009.92 1010.24 1010.56 1010.92 1011.16 1011.40 1011.60 1011.84 1012.12 1012.36 1012.60 1012.84 1013.04 1013.24 1013.48 1013.76 1013.96 1014.12 1014.32 1014.52 1014.72 1014.96 1015.24 1015.48 1015.76 1015.96 1016.16 1016.36 1016.48 1016.60 1016.68 1016.80 1016.92 1017.04 1017.16 1017.24 1017.32 1017.44 1017.60 1017.76 1017.96 1018.08 1018.16 1018.24 1018.36 1018.44 1018.52 1018.64 1018.72 1018.80 1018.80 1018.92 1018.96 1018.96 1019.00 1019.08 1019.12
1006.40 1006.68 1006.96 1007.32 1007.68 1008.00 1008.36 1008.68 1008.96 1009.24 1009.52 1009.80 1010.08 1010.40 1010.76 1011.08 1011.28 1011.52 1011.76 1011.96 1012.24 1012.48 1012.72 1012.96 1013.16 1013.40 1013.64 1013.88 1014.08 1014.24 1014.44 1014.68 1014.84 1015.12 1015.40 1015.68 1015.92 1016.12 1016.32 1016.48 1016.60 1016.72 1016.80 1016.92 1017.04 1017.16 1017.28 1017.40 1017.48 1017.56 1017.68 1017.84 1017.96 1018.08 1018.20 1018.28 1018.40 1018.48 1018.56 1018.68 1018.72 1018.80 1018.92 1019.00 1019.08 1019.12 1019.12 1019.16 1019.16
1006.52 1006.84 1007.20 1007.52 1007.88 1008.24 1008.52 1008.80 1009.08 1009.36 1009.64 1009.96 1010.28 1010.64 1010.96 1011.20 1011.44 1011.68 1011.88 1012.12 1012.36 1012.60 1012.80 1013.08 1013.28 1013.52 1013.80 1014.00 1014.20 1014.40 1014.56 1014.80 1015.00 1015.24 1015.52 1015.76 1015.96 1016.20 1016.40 1016.56 1016.72 1016.84 1016.96 1017.04 1017.16 1017.28 1017.40 1017.48 1017.52 1017.64 1017.72 1017.84 1017.96 1018.12 1018.20 1018.32 1018.40 1018.52 1018.64 1018.76 1018.80 1018.88 1018.96 1019.08 1019.12 1019.16 1019.20 1019.20 1019.24
1006.68 1007.04 1007.40 1007.68 1008.04 1008.36 1008.64 1008.92 1009.24 1009.52 1009.84 1010.16 1010.48 1010.80 1011.12 1011.36 1011.60 1011.84 1012.08 1012.24 1012.48 1012.76 1013.00 1013.24 1013.44 1013.68 1013.92 1014.12 1014.36 1014.52 1014.76 1014.96 1015.24 1015.44 1015.64 1015.84 1016.08 1016.28 1016.52 1016.68 1016.88 1017.00 1017.12 1017.12 1017.24 1017.40 1017.48 1017.56 1017.64 1017.68 1017.76 1017.84 1017.96 1018.12 1018.24 1018.36 1018.48 1018.56 1018.68 1018.80 1018.88 1018.96 1019.04 1019.12 1019.16 1019.24 1019.24 1019.24 1019.28
1006.92 1007.24 1007.52 1007.88 1008.20 1008.52 1008.80 1009.12 1009.40 1009.76 1010.08 1010.40 1010.68 1010.96 1011.24 1011.52 1011.76 1012.00 1012.24 1012.44 1012.64 1012.88 1013.12 1013.40 1013.60 1013.80 1014.04 1014.28 1014.52 1014.72 1014.96 1015.12 1015.36 1015.56 1015.80 1015.96 1016.20 1016.40 1016.68 1016.84 1017.00 1017.12 1017.20 1017.24 1017.40 1017.48 1017.56 1017.68 1017.72 1017.80 1017.84 1017.92 1018.04 1018.20 1018.32 1018.44 1018.56 1018.68 1018.80 1018.88 1018.96 1019.04 1019.12 1019.20 1019.28 1019.36 1019.36 1019.36 1019.36
1007.12 1007.40 1007.72 1008.08 1008.36 1008.68 1009.00 1009.36 1009.68 1009.96 1010.28 1010.64 1010.96 1011.20 1011.40 1011.64 1011.88 1012.16 1012.40 1012.60 1012.80 1013.00 1013.24 1013.48 1013.68 1013.92 1014.12 1014.36 1014.60 1014.84 1015.08 1015.28 1015.52 1015.76 1015.96 1016.16 1016.36 1016.56 1016.76 1016.96 1017.08 1017.16 1017.24 1017.40 1017.48 1017.56 1017.68 1017.76 1017.84 1017.88 1017.96 1018.00 1018.20 1018.36 1018.48 1018.60 1018.68 1018.80 1018.96 1019.08 1019.12 1019.20 1019.24 1019.36 1019.40 1019.52 1019.52 1019.44 1019.44
1007.24 1007.56 1007.92 1008.24 1008.52 1008.88 1009.20 1009.52 1009.84 1010.16 1010.52 1010.80 1011.12 1011.36 1011.56 1011.76 1011.96 1012.24 1012.48 1012.68 1012.96 1013.20 1013.40 1013.68 1013.88 1014.12 1014.32 1014.52 1014.76 1014.96 1015.20 1015.40 1015.68 1015.92 1016.12 1016.32 1016.52 1016.68 1016.88 1017.04 1017.16 1017.24 1017.32 1017.44 1017.56 1017.68 1017.76 1017.84 1017.96 1018.00 1018.08 1018.20 1018.36 1018.52 1018.64 1018.76 1018.88 1019.00 1019.12 1019.24 1019.32 1019.40 1019.48 1019.52 1019.60 1019.64 1019.64 1019.64 1019.64
1007.40 1007.68 1008.00 1008.40 1008.72 1009.04 1009.36 1009.68 1010.00 1010.36 1010.68 1010.96 1011.24 1011.48 1011.68 1011.88 1012.12 1012.32 1012.56 1012.76 1013.04 1013.32 1013.56 1013.84 1014.04 1014.28 1014.52 1014.76 1014.96 1015.12 1015.28 1015.48 1015.72 1016.00 1016.24 1016.44 1016.64 1016.80 1016.96 1017.12 1017.24 1017.36 1017.40 1017.52 1017.64 1017.76 1017.88 1017.96 1018.04 1018.12 1018.20 1018.36 1018.52 1018.64 1018.76 1018.88 1019.04 1019.16 1019.24 1019.40 1019.52 1019.60 1019.68 1019.72 1019.80 1019.84 1019.84 1019.80 1019.80
1007.52 1007.84 1008.12 1008.52 1008.84 1009.20 1009.52 1009.84 1010.12 1010.48 1010.80 1011.08 1011.32 1011.52 1011.72 1011.96 1012.24 1012.48 1012.68 1012.84 1013.12 1013.40 1013.68 1013.92 1014.16 1014.40 1014.64 1014.80 1015.04 1015.24 1015.40 1015.52 1015.80 1016.08 1016.36 1016.56 1016.76 1016.92 1017.12 1017.24 1017.40 1017.48 1017.52 1017.64 1017.72 1017.84 1017.96 1018.04 1018.12 1018.24 1018.36 1018.52 1018.68 1018.76 1018.88 1019.04 1019.20 1019.32 1019.40 1019.52 1019.68 1019.76 1019.84 1019.88 1019.96 1019.96 1019.96 1019.96 1019.96
1007.68 1007.96 1008.24 1008.60 1008.96 1009.32 1009.64 1009.96 1010.24 1010.52 1010.84 1011.12 1011.40 1011.56 1011.80 1012.04 1012.28 1012.52 1012.76 1012.96 1013.16 1013.44 1013.72 1014.00 1014.28 1014.52 1014.72 1014.88 1015.08 1015.24 1015.44 1015.64 1015.88 1016.16 1016.40 1016.68 1016.92 1017.08 1017.24 1017.40 1017.56 1017.64 1017.68 1017.72 1017.84 1017.96 1018.04 1018.12 1018.20 1018.32 1018.44 1018.60 1018.76 1018.88 1019.00 1019.16 1019.28 1019.44 1019.52 1019.68 1019.80 1019.92 1019.96 1020.00 1020.08 1020.12 1020.16 1020.12 1020.04
1007.88 1008.12 1008.40 1008.72 1009.08 1009.40 1009.72 1010.04 1010.36 1010.68 1010.92 1011.16 1011.44 1011.68 1011.88 1012.12 1012.36 1012.60 1012.84 1013.04 1013.24 1013.52 1013.84 1014.12 1014.44 1014.68 1014.80 1014.96 1015.12 1015.36 1015.64 1015.84 1016.08 1016.28 1016.56 1016.84 1017.04 1017.20 1017.36 1017.52 1017.68 1017.80 1017.84 1017.88 1017.96 1018.08 1018.16 1018.24 1018.28 1018.36 1018.48 1018.68 1018.80 1018.96 1019.08 1019.24 1019.40 1019.52 1019.68 1019.76 1019.92 1020.04 1020.12 1020.16 1020.20 1020.24 1020.28 1020.28 1020.16
1008.00 1008.24 1008.52 1008.80 1009.12 1009.48 1009.80 1010.12 1010.44 1010.72 1010.96 1011.20 1011.48 1011.76 1011.96 1012.16 1012.44 1012.72 1012.96 1013.24 1013.48 1013.68 1013.96 1014.24 1014.52 1014.80 1014.96 1015.08 1015.28 1015.56 1015.84 1016.12 1016.32 1016.52 1016.76 1016.96 1017.16 1017.28 1017.40 1017.60 1017.76 1017.88 1017.96 1018.04 1018.12 1018.20 1018.24 1018.32 1018.36 1018.40 1018.56 1018.76 1018.84 1018.96 1019.12 1019.28 1019.48 1019.64 1019.80 1019.88 1020.04 1020.16 1020.24 1020.32 1020.36 1020.40 1020.48 1020.52 1020.40
1008.12 1008.40 1008.68 1008.96 1009.24 1009.56 1009.88 1010.24 1010.52 1010.80 1011.04 1011.24 1011.52 1011.80 1012.04 1012.24 1012.56 1012.84 1013.12 1013.40 1013.68 1013.92 1014.12 1014.44 1014.72 1014.96 1015.12 1015.28 1015.48 1015.76 1016.08 1016.36 1016.60 1016.80 1016.96 1017.12 1017.28 1017.40 1017.56 1017.72 1017.88 1018.04 1018.12 1018.24 1018.28 1018.32 1018.36 1018.40 1018.40 1018.52 1018.64 1018.80 1018.88 1018.96 1019.12 1019.36 1019.52 1019.72 1019.88 1020.00 1020.12 1020.24 1020.40 1020.52 1020.52 1020.60 1020.68 1020.72 1020.68
Wind_Speed
10 9 8 8 7 7 6 6 6 6 6 6 6 6 6 6 6 6 6 5 5 5 5 5 5 5 5 7 8 8 9 8 9 9 9 9 8 8 8 7 7 7 7 7 7 6 6 5 4 3 2 3 3 3 2 2 2 2 2 3 3 3 4 4 3 3 3 3 2
11 10 9 8 8 7 6 5 6 6 6 6 6 6 6 6 6 6 6 6 5 5 5 5 5 6 6 7 8 8 8 8 9 9 9 9 8 8 7 7 7 7 7 7 7 6 5 5 4 3 2 2 3 2 2 2 3 3 3 3 3 3 3 3 3 3 3 2 2
11 10 10 9 9 8 7 6 6 7 7 6 6 6 6 5 5 5 6 6 6 5 5 5 5 6 7 8 7 8 8 8 8 8 8 8 8 8 8 7 7 7 7 6 6 5 5 5 4 4 3 3 3 3 3 3 3 3 3 3 2 2 3 3 3 3 2 2 2
12 11 10 10 10 10 9 7 8 8 7 6 6 5 5 5 5 5 5 5 6 5 5 5 6 6 7 8 8 7 7 8 8 8 7 7 8 8 8 8 7 7 7 6 6 6 6 6 4 4 3 3 4 3 3 3 3 3 3 2 3 3 3 2 2 2 2 2 2
12 12 11 10 11 11 9 8 9 8 7 6 6 6 5 5 4 4 5 5 5 5 5 6 6 6 7 7 8 8 8 8 8 7 7 7 7 7 7 7 7 7 7 7 7 7 7 6 4 3 3 3 3 3 3 4 4 3 3 3 3 3 3 3 2 2 2 2 2
12 12 11 10 11 10 9 9 10 9 8 7 7 6 6 5 5 5 5 6 6 6 6 7 6 6 6 7 8 8 7 7 7 7 7 7 6 7 7 8 8 7 7 7 7 8 7 6 4 3 3 3 3 3 4 5 4 3 3 3 3 2 3 3 2 2 2 3 3
13 12 12 11 12 11 10 9 10 9 8 7 8 8 7 6 6 6 7 6 6 6 6 6 5 6 7 7 7 6 6 5 6 6 7 7 7 8 8 8 8 7 7 7 7 7 6 5 4 3 3 3 3 3 4 4 4 4 4 3 2 2 2 3 2 2 3 3 3
12 12 12 12 12 12 11 11 10 9 8 7 8 9 9 8 7 7 7 6 6 5 5 5 6 7 7 7 6 6 6 6 6 6 7 8 8 8 8 8 8 7 7 7 7 7 6 5 4 3 3 3 3 3 4 5 5 5 4 4 3 2 2 2 2 2 3 4 4
12 12 12 12 12 12 12 12 11 10 9 8 9 9 9 8 8 8 7 6 5 5 5 5 7 8 8 7 7 6 6 6 6 7 7 8 8 8 8 7 7 7 7 7 7 8 7 5 4 3 3 3 3 4 4 5 5 5 4 4 3 3 2 2 2 2 3 3 3
12 12 12 11 12 12 12 11 11 10 10 9 9 9 9 8 8 7 6 5 6 6 6 6 8 8 8 8 7 7 6 6 6 7 7 7 8 8 7 7 7 7 7 6 7 7 7 5 5 4 4 3 4 4 5 5 5 5 4 3 3 3 3 3 3 2 2 2 3
13 12 12 11 12 12 12 11 10 10 9 9 9 9 9 8 8 7 6 6 6 7 7 7 8 9 8 8 7 7 7 6 6 7 7 7 7 7 7 7 8 7 7 6 6 6 6 5 5 5 5 4 4 5 5 5 5 5 4 3 4 4 4 3 3 3 2 2 2
12 12 12 11 12 12 11 11 10 9 9 9 9 9 9 8 7 7 7 7 8 7 7 7 8 8 8 7 8 8 8 7 7 7 7 7 7 7 8 8 8 8 7 6 5 5 5 5 6 6 6 5 4 4 5 5 5 5 5 4 4 4 4 4 3 3 3 2 2
12 12 12 12 12 12 11 10 9 9 9 9 9 9 8 8 8 8 8 9 8 7 7 7 8 8 8 8 8 8 8 8 8 8 8 7 8 8 8 8 8 8 7 6 5 5 5 6 6 7 7 6 5 4 5 5 5 5 5 5 5 4 4 5 4 4 3 3 2
12 12 12 12 12 12 11 10 9 8 8 9 9 8 8 7 8 8 9 9 8 8 7 7 7 7 7 8 8 9 9 9 9 9 9 8 8 8 8 8 8 7 7 6 6 6 6 6 6 7 7 6 6 5 5 5 5 5 5 5 5 4 4 5 5 4 4 3 3
12 13 13 13 13 12 10 10 8 8 8 8 8 8 7 7 7 8 8 8 8 8 8 7 7 7 7 8 9 9 10 10 10 10 9 9 9 8 8 8 8 7 7 6 6 6 6 6 6 6 7 7 6 6 5 5 5 4 5 5 4 4 4 4 5 5 4 4 3
13 13 13 13 12 11 10 9 8 7 8 8 8 8 8 7 7 8 8 8 7 7 7 8 7 8 8 9 9 9 10 10 10 9 9 9 9 9 9 9 8 8 7 7 6 6 6 6 6 6 7 7 6 6 5 5 5 4 4 4 4 3 3 4 5 5 5 5 4
13 13 13 13 13 12 10 9 8 7 8 8 8 8 8 8 7 7 7 7 7 7 8 8 8 8 8 8 8 8 8 9 9 8 8 8 8 8 8 9 8 8 8 8 7 7 6 6 6 6 6 7 6 6 5 5 5 4 4 4 4 3 3 4 5 5 5 5 5
13 14 14 13 13 12 11 10 9 8 8 8 9 9 9 8 7 7 7 7 8 9 10 9 9 8 8 8 8 7 7 8 8 8 7 7 7 7 8 8 8 8 8 8 8 7 7 7 7 6 6 6 6 5 5 5 5 4 4 3 3 3 3 4 5 5 5 5 4
14 14 14 14 13 12 11 10 10 9 9 9 9 9 9 9 8 8 8 8 9 10 10 10 9 9 9 9 8 7 7 8 8 8 7 7 7 7 8 8 8 8 8 8 8 8 8 7 7 6 6 6 5 5 5 5 4 4 3 3 3 3 4 4 4 4 4 3 3
14 14 14 13 13 12 11 10 10 10 9 10 10 10 10 9 9 9 9 9 10 11 11 10 9 9 9 9 9 8 8 8 9 8 8 8 8 8 8 8 8 8 8 8 8 8 8 7 7 7 6 6 6 6 5 5 4 4 4 3 4 4 4 4 4 3 3 3 2
14 13 13 13 12 12 11 10 10 10 10 11 11 11 11 10 10 10 10 10 11 11 10 10 9 9 9 9 9 9 9 8 8 9 9 9 9 9 9 8 8 8 7 7 7 7 7 7 7 6 6 6 6 6 5 5 5 4 4 3 4 4 4 4 4 3 3 2 2
13 13 12 12 12 11 10 10 10 11 11 12 12 11 11 11 10 10 10 11 11 11 10 10 9 9 9 9 10 9 9 8 9 9 9 10 10 9 9 8 8 8 8 7 7 6 7 7 7 7 6 6 6 5 5 5 5 5 5 4 4 4 3 3 3 3 3 2 2
12 12 12 11 11 11 10 10 10 11 12 12 12 12 11 11 10 10 10 11 11 11 11 10 9 9 9 10 10 10 10 10 10 10 10 10 10 9 9 8 8 8 7 6 5 5 5 6 6 7 6 6 5 5 4 5 5 5 5 5 4 4 4 3 3 3 3 3 2
12 12 11 10 11 11 10 10 11 12 13 13 13 12 12 11 10 10 10 10 11 11 11 9 9 10 10 11 11 11 11 11 11 11 11 11 10 9 9 8 7 7 6 4 4 5 5 5 5 6 6 5 4 4 4 5 5 5 5 5 4 4 4 4 3 3 3 3 3
12 12 11 11 11 11 10 10 12 13 13 13 13 12 12 11 10 10 10 10 11 11 11 11 11 10 10 11 11 11 11 11 11 11 11 11 10 9 8 7 6 5 5 4 7 8 8 7 6 5 4 4 4 4 4 4 4 4 5 5 4 4 3 3 3 3 3 3 3
12 12 12 11 11 11 11 11 13 13 14 13 13 12 12 11 10 10 10 11 12 12 12 11 11 10 10 10 11 11 10 10 10 11 11 10 10 9 8 6 5 4 4 6 9 10 10 9 8 6 4 4 5 5 4 3 3 3 4 4 4 3 3 3 3 3 3 3 3
12 12 12 11 11 11 11 12 13 14 14 14 13 13 12 11 10 11 12 13 13 12 12 11 10 10 10 10 11 10 10 9 10 10 10 9 9 8 7 5 5 4 5 8 10 11 11 10 9 8 7 6 5 5 4 3 4 4 4 4 3 3 2 2 2 2 2 2 2
12 12 12 12 11 12 12 13 14 14 14 14 13 13 12 12 12 12 13 13 13 12 11 10 9 8 8 8 10 10 10 9 9 9 9 9 9 8 7 5 5 5 7 10 11 11 11 10 10 10 9 7 5 4 4 4 4 4 4 4 3 3 2 2 2 2 2 2 2
12 12 12 12 12 13 14 14 15 14 14 14 13 13 13 13 13 13 13 13 12 11 9 8 7 7 7 8 9 10 10 10 9 9 9 10 9 8 7 6 6 7 10 12 12 11 11 11 11 11 11 9 5 4 3 3 3 3 3 3 3 3 2 2 2 2 2 2 1
12 12 13 13 14 14 14 14 15 14 14 13 14 14 14 13 13 13 13 13 12 10 8 7 7 8 9 9 9 9 9 9 9 10 10 10 9 8 7 6 6 7 10 13 12 12 11 11 12 12 11 10 6 4 3 3 3 3 3 3 3 3 3 3 2 1 1 0 1
12 13 14 14 15 15 14 14 14 14 14 13 14 14 13 13 13 12 12 11 11 10 9 8 10 10 10 9 9 9 9 9 9 9 9 10 9 9 8 7 7 8 10 13 13 12 12 12 11 11 10 9 6 4 3 3 3 3 3 3 4 4 4 3 2 0 1 1 1
14 14 15 15 15 15 15 14 14 14 14 14 14 13 13 12 12 12 11 11 11 11 11 10 11 11 11 9 8 8 8 8 8 9 9 9 10 9 8 7 6 8 10 14 13 13 12 11 10 9 8 7 5 4 3 3 3 3 4 4 4 4 4 3 1 0 1 1 1
14 15 15 15 15 15 15 14 14 14 14 14 13 13 13 12 12 12 11 10 11 11 12 11 11 11 11 9 8 8 8 8 9 10 10 10 10 9 8 6 6 8 11 14 13 13 12 11 10 9 8 7 5 5 4 4 4 4 4 4 4 4 4 4 3 3 3 3 3
15 15 15 15 15 15 15 14 14 14 14 14 13 12 12 12 13 12 11 10 10 10 10 10 10 9 9 8 8 9 9 9 10 10 10 10 9 8 7 5 5 8 11 14 13 12 11 10 9 8 8 7 6 6 6 5 4 4 5 5 5 6 6 6 6 6 5 5 4
15 15 15 15 15 15 15 15 15 14 14 13 13 12 12 12 13 12 12 11 11 10 9 9 9 8 8 8 8 9 10 11 10 10 9 9 9 8 7 6 5 8 12 13 13 12 11 10 9 8 8 7 6 6 6 6 5 5 5 6 6 7 7 7 7 6 6 6 6
15 15 16 15 15 15 15 15 15 15 14 14 13 13 12 12 12 12 11 11 11 10 10 9 8 8 8 8 8 9 10 11 11 10 10 9 9 8 7 6 6 8 11 13 12 12 11 9 8 8 7 6 5 5 5 5 5 5 6 7 7 7 7 6 6 6 7 7 7
15 15 16 16 16 15 15 15 15 15 14 14 13 13 13 13 12 11 11 10 11 11 10 9 9 9 8 8 8 8 9 10 11 11 11 10 9 9 8 7 5 6 9 12 12 12 11 9 8 7 7 5 5 4 4 4 4 5 6 6 6 6 6 6 6 6 6 7 7
14 15 16 16 16 15 15 15 15 14 14 14 13 13 13 12 12 11 11 11 10 11 10 9 9 9 8 8 9 9 10 10 11 11 11 11 10 9 8 7 5 6 7 11 12 11 10 9 8 7 6 5 4 4 4 4 4 5 5 5 5 5 5 5 5 5 6 7 10
14 15 15 16 16 15 15 15 14 14 14 14 13 13 12 11 10 10 10 10 10 10 10 9 9 9 9 9 10 10 10 10 10 11 11 10 9 9 8 7 6 6 7 10 11 10 9 8 8 7 7 5 4 4 4 4 4 4 4 5 5 5 5 5 5 5 6 8 12
14 14 15 15 15 15 15 15 14 14 14 14 14 13 12 11 10 10 10 10 9 10 10 10 10 10 10 10 10 11 11 10 10 10 10 10 10 10 9 7 7 7 8 9 10 9 9 8 8 8 7 5 4 4 4 4 4 4 4 4 5 4 4 4 5 5 5 6 9
13 14 14 14 15 15 15 15 14 14 13 13 13 12 11 10 10 10 10 10 9 9 10 10 11 11 11 11 11 11 11 11 10 10 10 10 10 9 9 7 8 7 7 8 9 9 9 9 8 7 6 4 3 3 3 4 4 4 4 4 4 4 4 4 4 5 5 5 6
Wind_Direction
171 169 168 166 167 166 165 163 163 164 164 166 166 168 170 171 170 169 169 170 171 172 174 176 176 179 181 183 182 184 186 188 186 186 186 186 185 181 177 174 172 172 173 175 175 177 180 181 171 157 144 150 158 158 151 130 134 135 132 127 131 133 134 138 144 143 141 144 143
170 169 167 166 165 165 163 161 162 162 163 165 165 166 167 168 167 166 166 169 169 169 169 171 172 175 179 182 182 183 184 186 185 184 183 183 182 178 173 170 171 171 172 173 170 168 166 161 145 129 115 114 117 112 95 74 88 94 96 97 100 104 109 117 122 121 119 119 106
169 169 168 167 167 166 166 164 163 162 162 162 163 164 165 167 164 164 165 168 166 165 166 168 171 174 176 180 180 181 182 184 183 180 179 179 178 175 172 172 172 171 168 162 152 141 130 122 117 115 114 110 107 100 87 70 78 85 90 90 87 87 90 96 98 100 102 110 117
169 169 170 170 169 168 167 165 162 161 160 160 160 161 164 166 163 162 161 162 162 162 165 167 170 172 174 176 178 179 180 181 179 176 175 175 176 176 174 170 164 158 150 139 128 119 113 108 108 110 111 109 107 105 101 94 90 89 90 90 87 88 92 95 98 107 122 142 155
170 171 172 171 170 167 165 161 160 159 159 159 160 162 164 166 163 159 157 160 164 165 166 166 170 171 171 171 173 174 175 176 174 173 171 170 169 164 155 144 138 134 130 126 122 117 113 108 106 106 106 104 103 104 105 104 101 96 90 84 84 90 98 102 104 116 131 145 156
170 171 171 171 168 164 161 159 159 159 159 159 161 163 165 168 164 160 158 161 163 163 163 166 166 162 159 160 164 166 167 167 165 161 156 150 141 131 124 122 124 124 125 126 124 119 114 111 108 103 99 97 93 94 95 97 100 98 92 82 80 87 98 107 108 113 121 134 144
169 169 169 169 166 162 159 158 159 159 159 160 162 164 166 167 164 160 158 158 159 161 163 163 152 145 145 150 151 151 148 145 140 135 131 125 120 118 118 121 122 122 123 123 119 115 112 110 109 105 100 96 94 93 95 100 105 106 104 99 89 90 99 112 114 119 128 138 147
168 168 168 168 165 160 158 158 159 160 161 162 164 165 164 164 161 158 156 155 158 159 156 146 136 134 137 142 141 137 130 123 119 116 116 117 118 120 121 123 122 121 119 115 112 110 108 106 108 109 109 106 105 105 106 110 112 113 114 113 105 99 102 112 119 129 140 150 159
168 167 166 166 163 160 157 158 159 160 161 162 164 164 163 162 160 158 156 156 155 149 141 131 130 132 135 138 135 131 125 120 116 114 116 120 123 125 126 125 124 121 116 113 113 112 112 110 111 113 117 118 117 116 116 115 116 117 118 117 115 109 104 107 117 130 143 156 171
167 166 164 163 160 158 156 156 157 158 159 160 161 161 160 160 159 159 156 150 141 134 131 128 131 134 137 138 136 133 129 124 120 119 119 122 125 127 127 126 124 122 119 118 118 118 117 116 117 116 115 116 118 118 119 120 122 123 124 123 124 121 117 113 120 130 143 161 182
165 163 161 160 158 155 152 153 155 156 157 158 160 159 158 159 160 157 148 135 130 130 131 132 135 137 140 140 138 137 134 131 126 123 122 122 124 125 126 126 125 124 124 123 122 121 121 121 121 119 118 117 117 118 121 124 126 127 128 129 130 132 132 133 135 141 150 161 184
162 160 158 156 153 151 150 152 154 155 156 157 159 158 158 160 159 150 138 129 130 132 134 135 138 140 141 142 141 139 137 135 131 127 124 122 122 122 123 124 124 125 125 125 123 123 123 125 125 124 122 120 121 123 128 132 133 135 137 139 140 143 147 151 152 152 153 157 176
158 155 153 151 149 148 149 151 153 154 156 158 159 158 158 159 153 141 133 131 134 137 139 140 141 142 143 143 142 140 139 137 134 131 129 126 125 123 123 123 124 125 126 127 126 126 126 127 128 128 128 127 126 129 133 137 141 146 148 150 152 155 158 161 160 158 154 155 172
154 152 150 148 147 148 149 151 152 154 156 159 159 158 156 153 143 135 133 136 139 142 145 146 145 143 141 138 135 134 134 135 134 133 132 131 131 129 128 127 127 127 127 128 127 127 128 130 131 131 131 131 130 131 135 141 147 150 153 154 158 163 167 166 161 157 156 162 175
151 149 147 146 147 148 149 151 152 154 157 158 158 155 150 143 136 133 135 139 143 145 147 147 143 135 128 123 123 125 128 130 132 133 134 136 137 136 135 134 132 131 129 128 126 126 128 131 132 133 132 131 132 134 138 144 146 149 152 156 162 169 173 168 160 157 159 166 176
148 146 146 146 148 149 150 152 153 154 157 158 155 148 141 135 133 134 136 140 141 140 138 134 129 123 117 114 116 118 122 124 126 129 132 137 139 140 139 138 136 133 130 127 125 125 125 127 130 131 131 131 134 138 141 143 144 148 153 159 165 172 173 162 155 155 159 166 173
146 146 147 148 149 150 151 152 152 155 156 155 147 139 134 133 134 134 135 135 130 125 120 117 117 116 115 114 115 116 117 118 119 122 127 133 137 139 140 139 135 132 129 127 125 123 122 121 123 125 127 130 133 137 140 141 145 152 157 162 164 163 157 148 147 151 156 164 171
146 147 148 149 150 151 151 151 152 153 152 147 137 133 132 133 133 131 128 124 118 115 114 112 113 114 116 117 117 116 115 115 116 118 123 127 131 132 132 130 128 127 126 126 125 123 121 119 121 122 125 129 133 135 137 140 145 150 153 153 146 137 130 130 136 142 150 159 167
147 148 149 150 150 151 151 152 152 151 147 137 132 131 131 132 130 126 121 117 115 115 115 114 114 115 117 119 119 118 117 116 118 121 124 125 123 120 118 117 117 119 121 123 123 123 122 122 124 126 129 131 131 130 130 130 132 130 125 115 107 104 104 109 117 125 134 145 154
148 149 150 150 150 151 151 152 150 146 140 131 129 129 129 128 125 122 119 118 117 117 117 118 119 119 120 121 121 120 120 120 124 126 126 122 116 111 109 108 108 108 110 114 118 121 123 126 129 131 131 130 127 125 123 122 118 110 99 90 87 88 90 94 98 102 108 117 127
148 149 149 149 149 150 151 150 146 140 133 128 127 127 126 125 123 122 121 120 118 118 118 120 122 124 125 125 123 122 120 120 123 123 120 115 110 108 107 106 103 101 101 106 115 121 127 132 133 132 129 125 124 125 128 132 124 116 106 98 93 91 92 93 95 97 100 104 110
148 148 148 148 148 149 149 147 140 134 129 126 124 123 123 123 123 123 122 120 119 120 121 124 126 128 127 125 121 118 115 114 116 115 113 111 109 107 106 105 103 102 102 106 115 124 131 134 133 129 125 122 127 135 143 145 134 126 120 115 109 106 106 107 109 112 115 122 126
146 146 146 146 147 147 146 142 135 130 126 123 122 122 122 123 123 123 122 121 122 125 127 129 128 125 120 116 112 111 110 110 111 111 110 109 107 106 105 105 105 105 107 110 115 119 121 120 118 118 119 123 134 142 143 132 127 126 126 126 124 125 127 128 130 133 139 145 152
145 145 145 146 147 146 143 138 131 126 124 123 123 123 123 123 123 123 123 124 125 126 125 123 118 113 108 106 106 108 110 112 112 111 109 108 107 107 107 106 107 109 111 111 108 106 104 102 106 111 117 126 130 122 109 102 112 121 127 130 131 134 137 139 143 149 156 164 169
143 144 144 145 146 145 140 134 128 124 123 124 124 124 123 123 123 124 123 121 117 113 109 106 105 104 105 106 108 110 112 114 114 113 112 111 111 112 113 113 113 113 114 113 112 110 108 108 112 117 120 120 108 99 95 95 108 119 125 128 130 133 138 142 149 158 167 173 175
142 143 144 145 145 141 135 128 124 122 123 124 123 122 122 123 123 121 117 110 105 102 101 101 103 105 108 110 113 114 115 115 116 115 116 116 117 117 116 115 114 114 116 120 120 118 116 117 119 117 108 95 93 92 90 84 86 93 101 107 114 122 132 140 149 160 167 170 171
142 143 144 144 141 135 128 122 120 121 122 122 121 121 121 122 119 114 110 105 103 102 102 104 106 108 110 113 114 115 115 115 115 115 114 113 110 106 101 100 103 108 117 125 124 123 123 125 121 112 100 90 93 94 92 82 74 73 76 82 86 90 99 115 131 139 143 138 130
142 143 142 139 133 126 120 118 119 121 121 121 120 119 118 117 114 111 109 107 107 106 106 107 109 110 111 112 113 113 113 113 112 109 105 99 94 90 88 91 97 109 120 125 123 122 121 121 116 108 101 97 97 98 100 98 94 90 88 87 83 76 68 60 72 85 93 94 90
141 139 135 130 123 119 117 118 120 121 121 119 118 117 116 114 113 112 111 110 110 110 111 113 112 111 111 111 112 111 111 110 109 105 101 96 92 90 91 95 101 113 120 122 118 115 113 110 108 106 105 104 105 107 111 113 115 115 115 114 108 99 84 64 52 50 60 82 101
135 131 126 122 119 118 119 121 121 121 120 118 117 116 115 115 114 114 114 113 113 113 115 115 113 112 112 113 113 112 111 110 109 107 105 103 101 100 100 102 107 115 119 119 115 111 107 104 103 105 109 114 118 123 124 122 119 118 118 117 114 107 97 83 67 50 32 141 186
126 123 120 119 119 119 120 120 120 119 118 117 116 116 116 116 115 115 114 114 114 113 111 110 110 111 112 112 112 112 111 110 110 109 110 110 109 108 107 107 111 116 119 119 115 111 106 102 101 103 109 118 125 129 129 120 112 108 107 107 107 105 102 98 93 72 283 271 238
121 119 119 119 119 119 119 118 117 116 115 115 116 116 116 115 114 114 113 113 113 112 111 110 111 112 112 111 111 110 109 108 109 109 110 111 110 109 108 108 112 117 119 119 115 111 107 103 100 99 101 106 109 109 104 100 97 96 95 97 101 104 105 105 102 34 318 325 331
119 119 119 119 119 118 117 116 115 114 114 114 114 115 115 114 113 112 113 113 114 115 115 115 115 115 115 115 111 108 106 105 105 105 106 107 108 107 107 107 112 118 120 120 115 112 108 104 99 95 90 84 82 81 81 82 83 83 83 84 84 83 80 75 58 32 12 6 12
119 119 118 118 117 117 116 115 115 114 114 113 114 115 116 116 116 116 116 117 117 117 116 116 116 116 115 115 113 111 108 106 105 105 105 106 105 105 105 107 113 121 122 120 117 113 109 104 99 93 86 77 76 76 77 79 79 78 77 75 71 68 65 59 48 35 24 16 17
121 120 119 118 118 117 117 117 116 116 116 116 117 118 119 119 120 120 121 121 119 117 115 113 111 110 109 109 110 111 111 110 107 105 104 103 102 102 102 105 112 121 123 121 118 114 109 103 99 92 85 78 77 78 81 83 83 81 79 76 73 70 66 60 50 39 29 22 22
123 121 121 120 120 120 120 120 120 120 120 121 122 122 121 120 120 122 122 122 119 117 114 113 110 109 109 109 109 111 112 112 110 107 104 102 101 100 101 101 105 115 120 121 118 114 110 106 101 93 86 79 79 80 82 84 84 83 81 80 79 76 71 64 55 45 36 30 30
124 124 123 123 124 124 124 124 124 124 125 125 125 124 123 121 121 121 122 121 119 117 116 114 113 112 113 113 113 113 112 112 111 109 107 106 104 103 100 97 95 104 113 118 117 114 112 110 106 98 90 83 83 82 82 82 82 83 84 85 84 81 75 69 61 52 45 40 42
126 126 126 126 127 128 128 128 127 127 127 127 125 124 123 122 121 122 122 121 119 118 116 114 113 114 114 114 112 110 109 108 109 110 109 108 107 105 102 96 91 94 104 113 115 115 114 113 108 102 97 94 94 92 89 86 86 87 88 89 87 83 78 74 67 59 53 52 55
129 129 129 129 130 130 130 129 129 128 127 126 125 123 122 121 121 121 119 117 116 115 114 112 112 112 111 109 106 103 101 101 104 106 107 108 107 105 103 98 93 93 99 106 111 113 112 109 103 99 97 100 102 101 98 95 93 92 91 90 89 85 81 77 73 64 58 57 60
131 131 131 131 131 131 130 129 129 128 127 126 125 124 122 120 118 115 113 110 109 109 109 109 108 106 104 101 98 96 94 93 96 100 104 106 106 104 102 98 95 94 96 101 104 106 104 98 93 92 94 100 104 104 101 98 96 93 91 90 90 88 84 78 74 68 61 55 57
133 133 132 132 131 130 129 128 127 126 125 124 123 122 120 117 114 112 110 108 107 106 105 105 103 101 99 97 96 96 95 94 95 99 103 105 104 103 101 98 95 93 93 95 97 96 92 87 85 87 91 100 101 99 97 95 93 93 93 93 93 93 90 83 75 69 62 53 47